Wink, TX

5:53 AM CDT on May 27, 2017 (GMT -0500)
Winkler County

Weather History for KINK - April, 2013

Change the Weather History Date:

Saturday, April 6, 2013

  Actual Average Record
Temperature  
Mean Temperature 69 °F -  
Max Temperature 88 °F 79 °F 100 °F (1972)
Min Temperature 50 °F 45 °F 27 °F (1939)
Cooling Degree Days 4    
Growing Degree Days 19 (Base 50)    
Moisture  
Dew Point 28 °F    
Average Humidity 30    
Maximum Humidity 66    
Minimum Humidity 8    
Precipitation  
Precipitation 0.00 in - - ()
Sea Level Pressure  
Sea Level Pressure 29.75 in    
Wind  
Wind Speed 13 mph (SW)    
Max Wind Speed 23 mph    
Max Gust Speed 37 mph    
Visibility 10 miles    
Events      
Averages and records for this station are not official NWS values.
T = Trace of Precipitation, MM = Missing Value Source: NWS Daily Summary

Daily Weather History Graph

Daily Weather History Graph

Search for Another Location

Airport or City:

Trip Planner

Search our weather history database for the weather conditions in past years. The results will help you decide how hot, cold, wet, or windy it might be!

Date:

Astronomy

Apr. 06, 2013 Rise Set
Actual Time 7:34 AM CDT 8:15 PM CDT
Civil Twilight 7:09 AM CDT 8:40 PM CDT
Nautical Twilight 6:40 AM CDT 9:09 PM CDT
Astronomical Twilight 6:11 AM CDT 9:39 PM CDT
Moon 5:06 AM CDT (4/6) 4:58 PM CDT (4/6)
Length of Visible Light 13h 30m
Length of Day
12h 41m
Waning Crescent, 15% of the Moon is Illuminated
Apr 6
Waning Crescent
Apr 10
New
Apr 18
First Quarter
Apr 25
Full
May 2
Last Quarter

Hourly Weather History & Observations

Time (CDT) Temp. Dew Point Humidity Pressure Visibility Wind Dir Wind Speed Gust Speed Precip Events Conditions
12:53 AM 62.1 °F 43.0 °F 50% 29.78 in 10.0 mi SE 17.3 mph 24.2 mph N/A   Clear
1:53 AM 60.1 °F 42.1 °F 51% 29.76 in 10.0 mi SE 17.3 mph - N/A   Clear
2:53 AM 59.0 °F 41.0 °F 51% 29.75 in 10.0 mi SE 16.1 mph 21.9 mph N/A   Clear
3:53 AM 57.0 °F 41.0 °F 55% 29.74 in 10.0 mi SE 11.5 mph 19.6 mph N/A   Clear
4:53 AM 54.0 °F 39.9 °F 59% 29.75 in 10.0 mi SSE 8.1 mph - N/A   Clear
5:53 AM 52.0 °F 39.0 °F 61% 29.76 in 10.0 mi SE 9.2 mph - N/A   Clear
6:53 AM 50.0 °F 39.0 °F 66% 29.78 in 10.0 mi SSE 6.9 mph - N/A   Clear
7:53 AM 50.0 °F 39.0 °F 66% 29.81 in 10.0 mi SSE 5.8 mph - N/A   Clear
8:53 AM 55.0 °F 39.9 °F 57% 29.82 in 10.0 mi SSE 5.8 mph - N/A   Clear
9:53 AM 63.0 °F 39.0 °F 41% 29.83 in 10.0 mi SSW 3.5 mph - N/A   Clear
10:53 AM 75.9 °F 30.0 °F 19% 29.81 in 10.0 mi West 10.4 mph - N/A   Clear
11:53 AM 81.0 °F 25.0 °F 13% 29.81 in 10.0 mi West 19.6 mph 23.0 mph N/A   Clear
12:53 PM 82.9 °F 23.0 °F 11% 29.79 in 10.0 mi WNW 23.0 mph 32.2 mph N/A   Clear
1:53 PM 84.9 °F 21.9 °F 10% 29.77 in 10.0 mi WNW 17.3 mph 26.5 mph N/A   Clear
2:53 PM 88.0 °F 18.0 °F 8% 29.73 in 10.0 mi West 23.0 mph 36.8 mph N/A   Clear
3:53 PM 87.1 °F 19.9 °F 8% 29.72 in 10.0 mi West 13.8 mph 24.2 mph N/A   Clear
4:53 PM 87.1 °F 21.0 °F 9% 29.70 in 10.0 mi West 16.1 mph 27.6 mph N/A   Clear
5:53 PM 87.1 °F 19.9 °F 8% 29.69 in 10.0 mi WNW 13.8 mph 25.3 mph N/A   Clear
6:53 PM 86.0 °F 19.0 °F 8% 29.69 in 10.0 mi West 13.8 mph - N/A   Clear
7:53 PM 82.0 °F 18.0 °F 9% 29.70 in 10.0 mi West 11.5 mph - N/A   Clear
8:53 PM 73.9 °F 14.0 °F 10% 29.72 in 10.0 mi West 6.9 mph - N/A   Clear
9:53 PM 68.0 °F 14.0 °F 12% 29.72 in 10.0 mi West 9.2 mph - N/A   Clear
10:53 PM 66.0 °F 14.0 °F 13% 29.72 in 10.0 mi SW 4.6 mph - N/A   Clear
11:53 PM 61.0 °F 16.0 °F 17% 29.71 in 10.0 mi West 4.6 mph - N/A   Clear